Change the Weather History Date:

Saturday, January 19, 2013

  Actual Average Record
Temperature  
Mean Temperature 40 °F 28 °F  
Max Temperature 55 °F 41 °F 66 °F (1911)
Min Temperature 24 °F 16 °F -16 °F (1963)
Degree Days  
Heating Degree Days 25 37  
Month to date heating degree days 760 703  
Cooling Degree Days 0 0  
Month to date cooling degree days 0 0  
Year to date cooling degree days 0 0  
Moisture  
Dew Point 21 °F    
Average Humidity 53    
Maximum Humidity 81    
Minimum Humidity 24    
Precipitation  
Precipitation 0.00 in 0.00 in 0.90 in (1988)
Sea Level Pressure  
Sea Level Pressure 30.19 in    
Wind  
Wind Speed 9 mph (NW)    
Max Wind Speed 24 mph    
Max Gust Speed 26 mph    
Visibility 10 miles    
Events      
T = Trace of Precipitation, MM = Missing Value Source: NWS Daily Summary

Daily Weather History Graph

Daily Weather History Graph

Search for Another Location

Airport or City:

Trip Planner

Search our weather history database for the weather conditions in past years. The results will help you decide how hot, cold, wet, or windy it might be!

Date:

Astronomy

Jan. 19, 2013 Rise Set
Actual Time 7:05 AM MST 4:49 PM MST
Civil Twilight 6:36 AM MST 5:19 PM MST
Nautical Twilight 6:02 AM MST 5:52 PM MST
Astronomical Twilight 5:30 AM MST 6:24 PM MST
Moon 11:16 AM MST (1/19) 12:41 AM MST (1/19)
Length of Visible Light 10h 43m
Length of Day
9h 43m
First Quarter, 58% of the Moon is Illuminated
Jan 19
First Quarter
Jan 26
Full
Feb 3
Last Quarter
Feb 10
New
Feb 17
First Quarter

Hourly Weather History & Observations

Time (MST) Temp. Windchill Dew Point Humidity Pressure Visibility Wind Dir Wind Speed Gust Speed Precip Events Conditions
12:53 AM 39.0 °F 30.6 °F 19.0 °F 45% 30.01 in 10.0 mi West 15.0 mph 20.7 mph N/A   Clear
1:53 AM 36.0 °F 26.3 °F 19.9 °F 52% 30.02 in 10.0 mi WNW 16.1 mph - N/A   Clear
2:53 AM 34.0 °F 25.0 °F 21.0 °F 59% 30.03 in 10.0 mi WNW 12.7 mph - N/A   Clear
3:53 AM 34.0 °F 25.0 °F 21.0 °F 59% 30.04 in 10.0 mi WNW 12.7 mph - N/A   Clear
4:53 AM 33.1 °F 25.5 °F 19.9 °F 59% 30.09 in 10.0 mi WNW 9.2 mph - N/A   Clear
5:53 AM 32.0 °F 23.6 °F 19.0 °F 59% 30.14 in 10.0 mi NW 10.4 mph - N/A   Clear
6:53 AM 35.1 °F 26.4 °F 18.0 °F 50% 30.16 in 10.0 mi NW 12.7 mph - N/A   Clear
7:53 AM 36.0 °F 28.5 °F 19.0 °F 50% 30.18 in 10.0 mi WNW 10.4 mph - N/A   Clear
8:53 AM 37.9 °F 29.6 °F 21.0 °F 51% 30.22 in 10.0 mi WNW 13.8 mph - N/A   Clear
9:53 AM 44.1 °F 37.4 °F 21.9 °F 42% 30.24 in 10.0 mi NW 13.8 mph - N/A   Clear
10:53 AM 48.9 °F - 21.0 °F 33% 30.23 in 10.0 mi NW 16.1 mph 25.3 mph N/A   Clear
11:53 AM 52.0 °F - 19.9 °F 28% 30.20 in 10.0 mi NW 13.8 mph - N/A   Clear
12:53 PM 53.1 °F - 21.0 °F 29% 30.18 in 10.0 mi NW 11.5 mph - N/A   Clear
1:53 PM 54.0 °F - 18.0 °F 24% 30.17 in 10.0 mi NW 11.5 mph 19.6 mph N/A   Clear
2:53 PM 55.0 °F - 19.0 °F 24% 30.19 in 10.0 mi North 9.2 mph - N/A   Clear
3:53 PM 51.1 °F - 21.0 °F 31% 30.21 in 10.0 mi NNE 4.6 mph - N/A   Clear
4:53 PM 44.1 °F - 21.0 °F 40% 30.23 in 10.0 mi Calm Calm - N/A   Clear
5:53 PM 37.9 °F - 23.0 °F 55% 30.25 in 10.0 mi Calm Calm - N/A   Clear
6:53 PM 33.1 °F - 24.1 °F 70% 30.28 in 10.0 mi Calm Calm - N/A   Clear
7:53 PM 32.0 °F 24.8 °F 21.0 °F 64% 30.31 in 10.0 mi NNE 8.1 mph - N/A   Clear
8:53 PM 30.9 °F - 21.0 °F 67% 30.31 in 10.0 mi Calm Calm - N/A   Clear
9:53 PM 27.0 °F 21.6 °F 21.0 °F 78% 30.30 in 10.0 mi NE 4.6 mph - N/A   Clear
10:53 PM 27.0 °F 23.0 °F 21.0 °F 78% 30.28 in 10.0 mi East 3.5 mph - N/A   Clear
11:53 PM 26.1 °F 18.4 °F 21.0 °F 81% 30.27 in 10.0 mi SSE 6.9 mph 26.5 mph N/A   Clear